Wind_Speed
30 28 25 24 27 26 26 29 28 27 27 26 25 23 22 22 23 24 23 23 23 22 21 20 19 19 19 19 19 18 18 17 17 16 14 12 10 11 12 11 11 10 10 11 10 11 11 9 10 10 9 9 10 10 9 8 9 9 9 10 10 10 8
29 27 24 22 25 26 25 28 28 28 28 27 25 24 23 23 23 24 23 23 24 23 23 21 20 20 19 19 19 19 19 18 17 16 14 13 12 12 12 10 10 10 10 11 10 11 11 10 10 9 9 9 9 10 9 9 10 9 9 10 10 10 9
28 27 25 23 24 25 25 28 28 28 28 27 25 24 24 24 23 24 23 23 23 23 23 22 21 21 20 19 19 19 20 19 17 16 15 14 14 13 12 11 11 12 12 11 10 9 11 10 10 11 10 10 10 10 10 10 10 10 10 9 10 10 9
27 27 25 26 26 23 24 29 28 27 28 27 27 25 25 25 23 23 23 23 23 23 24 23 22 21 20 20 19 18 19 19 18 17 15 13 14 13 13 13 13 13 13 12 10 9 11 10 10 12 12 11 11 10 10 11 10 10 11 9 9 10 9
24 25 24 27 28 23 24 30 28 27 28 27 27 26 24 25 23 22 22 22 23 23 23 22 21 20 20 20 20 18 19 19 19 18 16 14 14 14 14 14 13 13 13 12 11 10 11 10 10 12 11 11 11 11 11 11 11 11 11 9 9 10 9
21 24 25 28 30 24 25 30 28 26 28 27 28 27 25 25 23 22 22 22 22 22 22 21 20 20 20 19 19 18 18 18 19 19 17 17 16 14 14 14 13 12 12 12 12 12 11 11 12 11 10 11 11 11 11 11 10 11 10 9 10 9 8
22 25 25 29 35 30 27 31 30 26 26 27 28 27 25 25 24 22 23 23 22 21 21 21 20 20 19 18 18 18 18 18 18 18 17 17 16 13 12 12 13 13 13 13 14 14 13 13 11 10 9 10 10 12 12 11 10 10 10 9 10 10 8
20 24 24 27 35 33 29 32 32 28 25 26 29 28 25 25 25 24 23 22 22 22 21 21 21 20 19 18 18 18 17 17 17 17 17 16 16 14 13 13 14 14 15 15 15 15 15 13 11 11 11 11 11 13 13 12 11 11 11 10 10 9 10
18 21 24 26 30 32 30 31 30 27 23 23 27 27 26 26 25 25 26 25 24 22 21 21 20 19 19 18 18 18 17 17 17 17 17 16 16 16 15 15 14 14 15 14 14 15 16 15 14 14 13 13 14 14 14 13 12 12 12 11 11 10 11
18 20 22 23 25 28 29 27 26 27 24 23 25 26 26 27 27 26 26 27 26 23 22 21 20 19 19 19 18 17 17 17 17 16 16 17 16 16 16 15 14 15 16 15 13 15 16 15 16 16 15 16 16 15 15 15 14 13 13 13 12 11 10
18 19 20 20 21 23 25 22 21 24 25 25 25 25 25 25 26 26 25 25 26 26 24 22 20 19 20 20 19 18 17 16 16 16 16 16 16 16 16 16 15 16 17 16 15 16 16 15 16 16 15 16 16 15 16 16 15 15 15 15 14 11 11
15 16 19 23 23 24 26 24 22 22 23 22 23 23 23 23 23 25 24 24 25 26 26 24 22 22 22 22 21 20 19 17 16 16 16 16 16 16 16 16 16 16 17 18 17 17 16 15 15 15 15 16 16 15 16 16 16 16 16 15 15 14 13
11 13 17 24 26 25 26 26 25 25 24 23 22 22 23 23 21 21 22 22 23 24 25 24 23 25 25 23 22 20 20 19 17 16 16 16 16 16 15 16 16 16 17 18 19 18 17 17 16 15 15 16 16 16 16 17 17 17 17 16 15 15 14
9 11 13 17 22 25 25 25 26 27 28 28 26 24 24 24 22 21 21 22 22 22 24 24 23 24 23 22 22 20 19 19 18 16 16 16 16 16 15 16 16 17 18 19 19 18 18 18 18 17 15 15 16 16 16 17 17 17 17 17 15 15 15
8 9 11 12 17 24 26 25 26 27 28 28 27 25 25 25 24 23 23 24 23 22 22 22 21 21 20 20 21 21 20 20 19 18 18 17 17 17 17 17 16 15 17 19 19 18 19 19 18 18 17 16 17 17 17 17 17 17 17 17 16 16 15
5 6 10 11 13 21 25 24 24 26 27 27 26 25 23 21 21 22 22 23 23 21 21 21 19 19 18 19 20 20 19 20 21 22 22 21 20 19 20 20 17 15 15 17 17 16 17 18 19 20 20 20 20 20 18 17 17 17 16 17 17 16 15
6 5 9 11 11 17 23 22 21 23 25 25 24 23 22 21 20 20 21 21 21 20 20 20 20 19 17 17 19 20 20 20 21 23 23 24 23 22 23 23 22 19 18 18 19 16 15 17 18 19 20 19 19 19 17 17 17 17 16 16 17 16 15
11 12 13 12 10 12 16 19 20 21 23 22 21 19 19 21 24 24 23 23 22 21 21 20 20 18 17 17 18 18 20 20 20 22 24 25 25 24 23 24 25 24 21 20 20 19 17 16 16 16 16 16 16 17 16 15 18 18 15 14 16 17 16
12 14 17 17 15 13 12 11 12 16 19 19 17 18 19 18 20 21 19 19 18 18 19 21 21 21 21 21 21 20 20 21 21 22 24 25 25 26 25 24 24 25 24 22 21 20 18 17 17 18 18 16 15 15 15 17 19 19 17 15 17 18 17
14 16 17 16 15 14 15 14 9 8 14 14 10 12 16 16 18 19 17 15 14 13 14 15 17 18 19 20 21 22 23 23 23 24 24 24 25 27 28 27 25 24 24 24 23 23 22 20 19 21 22 21 19 16 17 19 19 17 17 17 18 20 19
15 16 15 14 14 13 15 15 11 7 8 9 5 5 9 10 12 15 15 14 14 14 14 14 14 14 15 16 17 18 21 22 23 25 26 26 27 28 30 29 27 26 25 25 25 25 26 25 23 23 23 24 24 23 23 23 19 16 16 15 17 21 21
16 17 16 16 15 15 16 17 15 13 11 8 7 5 4 4 4 6 8 11 13 13 13 14 13 11 13 16 15 15 17 19 20 22 22 22 24 26 29 31 31 31 31 30 29 28 28 27 26 26 25 25 25 25 25 25 21 18 18 15 14 18 20
16 17 18 18 17 16 17 18 17 15 15 14 13 11 8 5 2 2 2 5 7 6 6 8 8 7 8 13 15 15 16 17 18 18 19 19 20 22 24 26 28 29 31 32 32 31 31 29 28 28 27 27 27 26 25 24 21 18 19 18 17 18 19
17 16 17 19 20 20 19 20 19 18 16 16 16 15 15 13 9 7 7 6 4 3 2 2 4 4 4 6 8 9 10 12 13 14 16 17 18 18 19 19 20 21 24 26 26 27 28 29 29 29 28 28 29 28 25 23 21 18 19 22 23 22 22
19 17 16 16 19 22 23 22 21 20 18 17 15 13 13 14 13 12 13 13 11 10 9 9 9 9 9 9 8 5 3 3 5 7 10 13 13 14 15 16 17 17 18 19 20 21 23 25 26 28 29 30 31 29 24 21 19 18 20 23 25 25 24
20 19 18 16 17 19 20 20 21 22 21 19 16 12 11 13 14 15 14 14 13 13 12 11 10 10 10 11 10 8 6 4 4 5 5 5 5 5 7 10 12 13 14 16 16 17 18 20 23 26 29 32 33 30 25 22 18 17 20 23 23 23 23
18 19 19 17 17 17 18 19 20 20 20 20 18 14 11 11 14 15 15 15 15 13 11 9 10 9 10 12 12 10 9 7 5 5 4 3 3 2 3 4 4 4 6 8 10 11 13 14 16 17 18 24 29 28 24 22 19 17 19 21 20 20 20
17 18 18 18 17 17 19 20 20 18 17 17 17 16 13 11 12 13 13 14 16 13 9 7 8 9 10 12 12 13 13 11 8 6 5 5 6 4 4 4 3 2 1 2 3 5 7 8 9 7 6 12 20 23 21 20 19 19 20 20 18 18 19
18 19 19 20 20 19 19 21 21 20 19 17 16 15 14 13 12 11 12 13 14 12 9 7 6 7 9 10 11 12 12 10 8 6 5 7 8 7 6 5 5 5 5 5 5 4 3 2 4 4 4 7 12 16 18 18 18 18 19 18 16 15 15
17 18 18 19 19 18 18 19 20 19 19 19 17 15 14 13 12 12 13 14 13 11 10 10 8 7 7 8 11 12 11 9 9 9 9 9 9 10 9 8 8 9 10 10 10 10 8 7 7 5 5 5 6 7 9 11 12 11 12 13 12 10 9
13 14 14 14 14 13 13 14 15 15 16 17 17 17 17 15 13 12 12 11 10 9 10 11 9 8 7 7 9 11 10 9 9 10 11 10 9 9 9 8 8 10 9 8 11 12 11 9 8 8 8 7 5 5 5 4 6 6 6 7 7 6 6
10 11 10 10 10 9 9 10 10 11 12 14 14 14 15 13 11 9 8 8 6 6 8 9 8 8 9 8 8 8 7 7 8 8 9 9 8 7 7 7 8 9 8 7 10 11 10 9 8 6 8 9 8 7 5 4 5 6 5 5 4 4 4
10 10 9 8 7 6 8 8 8 8 9 9 10 10 11 12 11 8 7 8 7 5 7 7 6 6 7 7 7 7 6 7 9 7 5 8 8 6 8 7 4 3 5 8 9 9 8 8 7 6 7 7 6 5 5 4 3 3 3 2 2 2 1
10 9 8 6 4 4 5 7 9 10 9 8 8 7 7 9 11 9 8 7 6 5 6 7 6 6 6 6 7 7 6 5 7 6 4 3 4 4 6 6 4 4 5 7 8 8 8 9 9 7 7 7 6 6 6 5 5 4 3 2 2 2 3
11 10 8 5 3 2 3 4 7 9 9 7 7 7 6 5 5 5 6 7 5 4 5 7 7 5 5 6 6 7 6 3 3 6 6 5 2 2 4 5 4 2 3 7 8 6 6 8 10 9 9 8 7 7 7 6 6 6 6 6 7 8 8
11 10 8 6 5 4 4 2 3 5 6 5 5 5 5 4 2 1 2 3 4 3 4 7 5 5 3 2 5 7 9 5 1 5 9 8 3 3 1 2 2 3 1 4 7 7 8 8 8 8 9 9 8 9 10 10 9 10 11 11 12 13 12
12 10 9 9 9 8 5 3 1 2 4 4 4 4 4 2 0 2 2 2 2 1 2 6 7 2 5 3 4 8 7 5 2 2 5 8 6 3 3 4 5 6 5 2 1 5 8 10 10 10 12 13 12 11 11 12 13 13 13 13 13 13 13
11 12 12 12 12 11 7 5 3 2 1 1 2 3 4 2 1 2 3 3 3 2 2 5 9 7 2 2 3 6 5 3 3 3 2 4 5 4 3 4 7 7 6 6 5 3 2 4 6 8 9 11 11 10 10 11 12 12 12 12 12 11 11
Wind_Direction
201 205 206 199 195 195 191 187 187 188 185 182 182 182 181 181 180 179 183 186 185 184 184 183 183 185 188 188 188 189 185 183 184 185 188 189 186 192 196 198 202 201 199 200 197 200 209 210 204 204 208 217 222 219 217 217 217 217 215 215 219 222 227
201 207 212 204 193 193 192 186 186 188 185 182 184 186 184 181 180 180 184 188 188 187 187 186 185 186 189 191 190 192 191 189 188 190 190 187 188 195 197 199 201 200 201 200 198 207 211 207 203 206 212 220 225 221 218 220 218 218 220 220 225 230 232
198 204 213 209 194 190 190 186 186 187 184 184 186 187 187 183 178 180 185 186 189 191 190 188 187 188 190 191 191 194 196 195 192 191 192 193 195 194 192 198 202 200 204 205 201 209 215 209 205 212 218 223 227 222 221 225 222 220 227 228 228 234 237
197 199 208 209 197 190 189 186 186 187 184 186 188 186 188 185 178 181 185 184 186 190 192 191 190 191 193 191 192 196 198 199 196 191 192 197 199 196 193 201 208 203 207 212 206 209 216 212 211 216 217 221 224 221 222 225 223 224 231 233 234 237 237
196 197 204 208 200 189 184 184 186 188 186 186 188 187 185 184 180 181 183 182 184 187 189 191 190 189 194 194 193 198 199 199 200 195 190 195 207 209 200 202 211 211 209 211 209 212 214 212 219 220 216 221 223 221 226 226 221 227 232 231 236 240 237
195 197 200 205 203 190 179 184 187 189 189 188 187 187 184 182 181 182 184 183 184 187 186 186 188 189 193 193 192 198 201 199 202 198 190 195 211 216 207 203 209 211 209 210 212 218 220 218 218 214 214 226 226 220 229 231 223 227 232 227 234 240 236
195 199 198 200 202 195 180 183 188 187 190 191 186 184 183 182 182 184 188 186 185 189 187 184 188 190 191 193 192 197 201 201 203 201 195 197 207 211 208 206 212 215 212 214 217 219 223 224 218 212 216 226 226 222 227 230 224 225 229 227 231 235 233
194 198 198 196 198 196 184 180 184 184 187 189 187 185 183 183 185 185 187 187 185 188 189 187 191 195 194 193 193 197 200 201 203 202 199 200 204 208 207 206 218 225 219 218 219 218 221 223 219 219 220 219 220 223 226 228 224 221 227 230 229 230 235
193 194 195 195 193 193 187 182 183 184 186 187 187 189 187 185 188 188 186 186 185 187 191 191 192 196 197 194 195 198 199 199 202 204 204 204 205 208 208 208 217 227 228 225 221 221 223 219 217 222 221 217 219 221 223 230 231 225 226 232 233 230 232
191 190 190 193 192 190 186 183 187 193 197 195 189 187 187 187 190 191 189 190 188 186 190 193 192 195 196 196 196 198 199 200 202 203 206 208 209 211 212 212 213 219 230 231 221 226 230 221 220 229 227 223 225 223 222 227 232 232 230 230 235 239 235
175 173 173 178 182 183 181 182 191 196 196 194 188 185 184 183 188 193 194 195 192 189 189 191 193 195 196 195 195 197 199 202 204 206 207 209 212 213 214 216 215 219 230 234 226 228 232 224 225 231 229 228 231 228 226 228 230 234 235 229 231 239 244
161 156 164 172 175 175 174 178 186 184 179 179 184 187 186 184 188 192 192 192 192 193 192 191 194 198 198 197 197 197 197 200 205 208 210 211 213 215 216 218 218 220 228 235 235 232 231 229 230 232 230 232 235 233 231 232 232 235 239 234 228 229 236
148 147 163 174 178 174 169 173 181 182 178 178 181 182 182 181 184 189 191 192 194 196 196 194 197 202 204 205 205 204 200 200 204 208 211 214 216 216 218 220 221 221 224 232 238 239 237 234 233 237 237 234 237 238 234 233 234 236 240 239 234 231 233
145 146 156 172 177 174 170 173 178 181 183 184 183 181 182 181 182 185 188 192 194 192 192 194 196 199 203 206 210 213 210 205 207 211 213 215 217 218 220 222 223 222 223 229 236 242 244 240 235 236 236 233 238 241 237 235 236 237 239 240 239 237 236
154 153 157 170 176 177 179 178 176 178 181 183 182 182 185 186 187 188 188 190 191 187 188 195 198 200 202 204 207 213 214 211 210 213 216 218 219 220 219 220 223 225 226 230 237 243 242 236 232 231 232 233 240 243 241 238 239 239 238 238 239 238 238
176 177 170 170 171 177 183 182 180 184 187 187 186 183 183 186 190 196 196 194 195 192 193 200 202 204 207 210 212 213 212 212 212 211 214 217 220 221 220 217 217 220 223 226 231 240 240 232 226 226 230 233 237 241 241 238 240 243 241 239 240 238 239
150 143 159 167 164 172 180 179 179 188 194 198 200 199 202 210 215 216 212 208 207 205 206 206 203 202 207 213 219 220 219 219 218 215 215 216 219 223 223 221 219 217 218 219 218 221 229 230 225 226 230 230 232 237 238 235 238 245 245 243 244 243 243
134 122 128 134 135 155 173 175 174 181 189 196 201 201 206 218 227 228 228 230 228 225 225 223 217 214 218 221 222 223 223 223 223 221 219 218 218 220 222 224 224 223 223 224 221 217 221 225 225 229 234 232 230 235 235 233 237 241 244 248 252 254 253
120 111 106 106 112 122 129 139 158 172 178 182 187 188 189 200 213 218 225 234 236 236 235 233 231 232 234 235 233 230 230 230 229 228 226 223 219 220 224 227 228 229 229 230 230 228 230 230 225 227 232 231 231 233 235 239 240 237 236 241 250 258 260
93 91 87 91 103 107 103 103 115 165 183 181 179 189 194 198 204 205 207 214 220 224 228 230 233 233 234 236 236 235 238 239 239 238 237 233 228 227 230 231 229 232 234 235 235 234 237 238 233 231 231 231 230 227 232 243 245 238 236 239 246 255 259
79 86 85 85 91 91 94 102 103 117 173 185 177 194 206 207 205 201 200 201 201 203 207 211 215 217 219 222 227 233 237 238 238 239 239 238 235 233 234 234 232 234 236 238 239 238 239 239 238 238 238 236 234 230 234 243 244 242 245 245 242 246 249
79 84 85 85 88 88 88 96 103 102 107 118 120 129 157 180 190 188 198 210 211 209 210 208 206 208 214 216 218 225 228 229 232 235 236 237 236 235 236 237 238 239 240 242 243 243 243 242 239 240 239 237 237 234 237 243 241 238 243 241 231 232 237
84 82 84 82 82 83 82 82 84 87 85 77 75 77 76 78 117 150 190 221 223 221 220 214 206 204 213 216 218 222 224 228 233 234 233 235 238 237 236 237 239 239 239 242 243 244 245 244 240 238 238 237 236 234 236 242 241 234 234 235 231 232 238
86 81 85 90 89 85 84 83 78 74 70 64 60 57 52 48 56 66 63 62 65 70 94 147 161 152 156 186 207 220 226 231 237 237 236 238 240 239 236 236 238 238 237 237 238 240 241 241 241 241 241 239 237 235 235 237 239 236 234 234 235 238 245
82 79 81 93 98 93 88 88 86 80 73 67 63 62 55 53 63 71 68 66 66 68 77 93 109 113 112 119 129 132 143 180 199 212 226 233 236 236 236 236 237 236 235 235 236 239 240 240 242 242 241 239 238 234 230 230 235 237 233 232 234 239 245
80 78 78 83 93 93 86 83 82 76 68 63 66 75 76 72 77 79 72 69 71 69 69 81 98 106 107 108 108 106 102 104 126 156 186 206 215 222 230 234 235 234 237 240 242 243 243 241 245 246 242 240 238 230 220 221 229 231 227 227 232 238 244
84 78 77 78 82 85 80 77 80 77 67 61 60 68 79 88 90 84 73 66 67 65 65 74 84 90 101 105 99 91 86 80 84 99 112 123 128 138 161 178 195 212 232 242 244 249 256 253 248 244 233 228 228 222 211 210 218 221 222 225 230 236 242
101 92 89 87 85 83 77 74 75 75 73 69 63 59 65 81 89 84 75 69 64 60 64 81 87 86 96 103 98 91 85 75 71 79 89 99 99 97 121 136 128 119 154 221 233 250 263 252 234 218 181 184 199 204 204 206 212 216 221 225 229 232 238
108 104 100 96 92 86 80 73 67 63 62 61 60 60 65 73 75 67 63 63 60 56 57 66 79 86 90 93 93 95 95 88 81 78 81 95 100 92 95 113 118 107 100 94 87 85 97 157 197 219 207 170 169 181 194 202 206 213 221 227 230 232 235
113 112 109 103 97 90 84 78 69 63 59 52 47 51 56 65 72 66 55 49 48 50 53 53 57 67 77 88 87 85 87 90 84 72 65 70 77 69 61 74 97 94 85 86 87 81 77 81 89 114 165 173 151 153 176 193 197 203 215 222 227 230 231
127 126 118 109 101 88 81 76 65 62 63 56 48 48 49 51 57 62 58 46 40 45 47 41 45 54 57 68 75 71 75 84 85 81 76 69 66 65 56 56 77 82 73 80 94 87 76 74 79 88 102 108 104 101 110 146 167 174 188 200 205 206 207
142 135 125 116 105 82 69 69 59 51 54 51 48 54 57 52 44 46 52 40 31 59 66 49 41 47 47 47 48 49 63 80 76 76 86 85 79 84 80 62 63 78 83 88 95 92 82 79 79 78 80 77 71 72 84 118 138 143 153 164 170 173 174
151 144 135 125 109 71 53 59 57 45 37 35 39 48 56 55 48 43 44 35 33 65 83 70 52 48 53 59 56 48 58 79 72 57 72 96 96 95 97 91 86 132 142 125 116 115 107 97 93 86 78 72 72 96 138 170 165 141 142 144 147 151 159
162 160 154 141 123 78 56 54 53 47 36 27 23 17 27 48 53 45 36 31 31 41 55 56 45 40 49 55 54 54 59 76 78 58 28 61 110 131 131 132 151 188 176 155 141 133 127 126 132 134 120 115 130 155 177 199 215 229 248 264 263 270 296
172 175 173 169 167 132 80 52 44 43 36 27 19 6 357 11 39 45 38 28 15 15 51 56 32 18 56 75 68 68 63 45 92 101 73 36 350 253 209 212 240 252 188 178 172 164 149 140 148 166 172 166 176 201 219 226 231 247 267 278 280 286 295
172 179 185 190 192 178 156 118 52 42 38 30 19 5 353 341 333 37 69 42 13 5 77 85 54 345 331 150 149 115 81 43 351 132 114 97 44 343 290 220 290 339 326 200 196 201 203 189 180 195 212 218 225 233 237 242 250 260 269 274 279 287 293
178 181 185 184 187 190 184 171 141 61 49 38 17 358 348 341 316 148 137 123 92 30 92 121 122 71 340 330 176 155 121 80 50 82 120 128 120 66 44 45 23 14 16 6 255 226 223 223 227 234 241 249 254 253 252 254 258 263 270 275 281 286 291
192 198 200 194 193 197 193 181 180 179 147 95 44 8 350 350 89 129 133 138 129 107 127 151 153 160 163 46 125 165 180 162 118 86 82 127 130 120 86 31 6 359 12 27 25 7 293 244 241 242 247 255 260 259 257 258 261 267 272 277 281 284 287
Height
1515 1517 1518 1520 1522 1524 1526 1528 1531 1533 1535 1538 1540 1542 1544 1546 1547 1548 1550 1552 1553 1555 1557 1559 1560 1562 1564 1565 1567 1569 1570 1572 1574 1576 1577 1578 1580 1581 1582 1583 1584 1586 1587 1588 1589 1590 1591 1593 1593 1594 1595 1595 1596 1596 1597 1597 1597 1598 1598 1599 1599 1599 1600
1514 1516 1516 1518 1520 1522 1525 1527 1530 1532 1534 1537 1539 1541 1543 1544 1546 1547 1549 1550 1552 1554 1556 1558 1560 1561 1563 1565 1566 1568 1569 1571 1573 1575 1576 1578 1580 1581 1582 1583 1584 1585 1586 1587 1588 1589 1590 1592 1592 1593 1594 1595 1595 1596 1596 1597 1597 1597 1598 1598 1598 1599 1600
1512 1515 1516 1517 1518 1520 1523 1525 1528 1531 1533 1535 1538 1540 1542 1543 1545 1546 1547 1549 1551 1553 1555 1557 1559 1560 1562 1564 1565 1567 1569 1570 1572 1574 1576 1577 1579 1580 1581 1583 1583 1584 1585 1586 1587 1588 1589 1590 1591 1592 1593 1594 1595 1595 1596 1596 1596 1597 1597 1598 1598 1598 1599
1509 1512 1514 1517 1517 1519 1522 1524 1527 1529 1531 1534 1536 1539 1541 1542 1544 1545 1547 1549 1550 1552 1554 1556 1558 1560 1561 1563 1565 1566 1567 1569 1571 1573 1575 1577 1578 1579 1581 1582 1582 1583 1584 1585 1586 1587 1588 1589 1590 1592 1593 1594 1594 1594 1595 1595 1596 1596 1596 1597 1598 1598 1598
1507 1510 1513 1515 1516 1518 1520 1522 1526 1528 1530 1533 1535 1537 1539 1541 1543 1545 1546 1548 1550 1551 1553 1555 1558 1559 1561 1562 1564 1565 1567 1568 1570 1572 1574 1576 1577 1578 1579 1580 1581 1582 1583 1584 1585 1586 1587 1588 1589 1590 1592 1593 1593 1594 1594 1595 1595 1596 1596 1597 1597 1597 1597
1506 1509 1511 1513 1515 1518 1519 1521 1525 1528 1530 1532 1534 1536 1538 1540 1542 1544 1546 1548 1550 1551 1552 1555 1557 1559 1560 1562 1563 1565 1566 1567 1569 1571 1573 1574 1576 1577 1578 1579 1580 1581 1583 1584 1584 1585 1586 1587 1588 1589 1590 1591 1592 1593 1594 1594 1594 1595 1595 1596 1596 1596 1597
1504 1507 1510 1512 1514 1516 1518 1521 1524 1527 1530 1532 1533 1535 1537 1539 1541 1544 1546 1548 1549 1551 1552 1554 1557 1558 1559 1561 1563 1564 1565 1566 1568 1570 1572 1573 1575 1576 1577 1578 1579 1581 1582 1583 1583 1584 1585 1587 1587 1588 1589 1590 1591 1592 1593 1593 1593 1594 1594 1595 1595 1595 1596
1503 1506 1508 1510 1512 1515 1517 1520 1523 1526 1529 1531 1532 1534 1536 1538 1540 1542 1545 1547 1549 1550 1552 1554 1556 1557 1558 1560 1562 1563 1564 1566 1567 1569 1571 1572 1574 1575 1577 1578 1578 1580 1581 1581 1582 1583 1584 1586 1587 1588 1588 1589 1590 1591 1592 1592 1593 1593 1594 1594 1594 1595 1595
1502 1504 1507 1509 1511 1514 1516 1520 1523 1526 1529 1530 1532 1534 1536 1537 1539 1541 1544 1545 1547 1549 1551 1553 1555 1557 1558 1559 1561 1562 1564 1565 1566 1568 1570 1571 1573 1574 1576 1577 1578 1578 1579 1580 1581 1582 1583 1585 1586 1587 1587 1588 1589 1590 1590 1591 1592 1593 1593 1593 1593 1594 1594
1501 1504 1506 1509 1511 1513 1516 1520 1524 1527 1529 1531 1532 1533 1535 1536 1537 1540 1542 1544 1546 1547 1550 1552 1554 1556 1557 1558 1560 1561 1563 1565 1566 1567 1569 1570 1572 1573 1575 1576 1577 1577 1578 1579 1580 1581 1582 1583 1584 1585 1587 1587 1588 1589 1589 1590 1591 1592 1592 1593 1593 1593 1594
1502 1504 1505 1508 1510 1512 1515 1520 1523 1526 1529 1530 1530 1532 1534 1536 1537 1538 1541 1542 1544 1546 1548 1551 1553 1555 1556 1557 1559 1560 1562 1564 1565 1566 1567 1569 1571 1572 1574 1575 1576 1577 1577 1578 1579 1580 1581 1582 1583 1584 1585 1586 1587 1588 1589 1589 1590 1591 1592 1592 1592 1592 1593
1504 1505 1506 1508 1509 1511 1514 1518 1521 1524 1527 1528 1530 1531 1534 1535 1536 1538 1540 1541 1543 1545 1548 1550 1552 1554 1555 1556 1557 1558 1560 1562 1564 1565 1566 1568 1569 1571 1572 1573 1575 1576 1576 1576 1578 1579 1580 1581 1582 1583 1584 1585 1586 1587 1588 1588 1589 1590 1591 1591 1591 1592 1592
1506 1507 1508 1508 1509 1511 1513 1516 1519 1522 1524 1527 1529 1531 1533 1535 1536 1538 1539 1540 1541 1544 1547 1549 1552 1553 1553 1554 1555 1556 1558 1560 1562 1564 1565 1566 1568 1569 1571 1572 1573 1575 1575 1575 1576 1577 1579 1579 1581 1582 1583 1584 1585 1586 1587 1587 1588 1589 1590 1590 1591 1591 1591
1507 1509 1510 1509 1510 1511 1512 1514 1518 1520 1523 1525 1527 1530 1532 1534 1536 1537 1539 1540 1541 1543 1546 1548 1549 1550 1551 1552 1554 1555 1557 1558 1561 1562 1564 1565 1566 1568 1569 1570 1572 1573 1574 1574 1574 1576 1577 1578 1579 1580 1581 1582 1583 1584 1585 1586 1587 1588 1589 1590 1590 1590 1591
1509 1509 1510 1511 1511 1511 1512 1513 1516 1519 1522 1524 1526 1529 1531 1534 1536 1538 1539 1540 1541 1542 1544 1545 1546 1548 1549 1551 1552 1553 1555 1557 1559 1561 1562 1563 1565 1566 1567 1569 1570 1571 1573 1573 1573 1574 1575 1576 1578 1579 1580 1581 1582 1583 1584 1585 1586 1586 1587 1588 1589 1589 1590
1511 1510 1511 1512 1512 1511 1512 1513 1515 1519 1522 1524 1526 1528 1531 1534 1537 1538 1539 1539 1539 1540 1541 1542 1544 1545 1547 1549 1551 1552 1554 1555 1556 1558 1559 1561 1562 1564 1565 1567 1568 1569 1570 1571 1572 1573 1574 1575 1576 1577 1579 1580 1580 1582 1583 1584 1584 1585 1586 1587 1588 1588 1589
1515 1512 1512 1513 1513 1513 1513 1513 1515 1518 1522 1524 1526 1527 1530 1534 1536 1538 1538 1539 1539 1539 1540 1541 1542 1544 1546 1548 1549 1551 1552 1553 1554 1555 1557 1558 1560 1562 1563 1565 1566 1567 1568 1569 1570 1571 1572 1573 1574 1575 1577 1578 1579 1581 1582 1582 1583 1583 1585 1586 1586 1587 1588
1517 1515 1513 1513 1515 1515 1515 1514 1515 1517 1521 1524 1525 1527 1529 1531 1533 1535 1536 1537 1538 1539 1540 1541 1542 1543 1545 1546 1548 1549 1550 1551 1552 1554 1555 1557 1558 1560 1561 1563 1565 1566 1567 1567 1568 1569 1569 1570 1572 1574 1575 1576 1577 1579 1580 1581 1582 1582 1583 1584 1585 1586 1587
1515 1515 1514 1514 1515 1516 1517 1517 1517 1519 1521 1524 1525 1526 1528 1530 1531 1533 1534 1535 1536 1537 1538 1540 1540 1542 1544 1545 1546 1548 1548 1550 1551 1552 1553 1556 1557 1558 1560 1562 1563 1564 1565 1566 1566 1567 1568 1569 1570 1572 1573 1574 1575 1577 1578 1578 1579 1580 1581 1583 1584 1585 1586
1514 1515 1515 1515 1515 1516 1517 1519 1520 1521 1522 1524 1525 1526 1527 1529 1530 1530 1531 1532 1533 1535 1536 1537 1537 1539 1541 1543 1544 1545 1546 1548 1549 1550 1552 1554 1556 1557 1557 1559 1560 1562 1563 1564 1564 1566 1566 1567 1568 1569 1571 1572 1573 1574 1574 1573 1575 1578 1579 1580 1581 1583 1584
1515 1516 1516 1517 1517 1518 1519 1521 1523 1525 1526 1527 1527 1528 1530 1531 1529 1528 1528 1529 1531 1532 1532 1533 1535 1537 1538 1540 1541 1542 1544 1545 1546 1547 1549 1552 1553 1554 1555 1556 1557 1559 1560 1560 1562 1563 1564 1565 1566 1567 1569 1570 1570 1571 1571 1570 1573 1576 1577 1577 1578 1580 1582
1517 1518 1519 1519 1519 1520 1521 1523 1525 1527 1529 1530 1529 1530 1531 1530 1529 1527 1527 1527 1529 1529 1529 1531 1533 1534 1536 1538 1539 1539 1540 1541 1542 1543 1546 1548 1550 1551 1553 1553 1554 1555 1556 1557 1558 1559 1560 1562 1564 1565 1566 1566 1567 1568 1569 1569 1571 1573 1575 1576 1576 1578 1580
1520 1521 1521 1521 1522 1522 1523 1524 1525 1527 1529 1529 1529 1530 1529 1529 1529 1527 1527 1528 1528 1528 1529 1530 1531 1532 1534 1536 1537 1537 1538 1539 1540 1541 1543 1545 1547 1548 1549 1549 1550 1551 1552 1553 1554 1555 1557 1558 1559 1561 1562 1563 1564 1565 1566 1568 1570 1571 1572 1574 1575 1576 1577
1523 1523 1523 1523 1523 1523 1524 1525 1526 1527 1529 1529 1529 1530 1530 1530 1530 1529 1529 1529 1529 1529 1530 1530 1530 1531 1533 1534 1535 1536 1537 1538 1538 1540 1541 1542 1544 1545 1546 1546 1547 1547 1549 1550 1551 1552 1553 1554 1555 1557 1559 1560 1561 1562 1564 1566 1567 1569 1570 1571 1572 1574 1575
1526 1525 1525 1525 1524 1524 1525 1525 1526 1527 1529 1531 1532 1532 1532 1533 1533 1533 1533 1532 1532 1532 1532 1531 1532 1532 1533 1534 1535 1536 1537 1538 1538 1538 1539 1540 1542 1543 1543 1543 1544 1545 1547 1548 1548 1549 1550 1551 1552 1554 1555 1556 1558 1559 1561 1562 1564 1566 1568 1569 1569 1570 1572
1528 1528 1528 1528 1527 1527 1527 1527 1527 1527 1529 1531 1533 1533 1534 1534 1535 1535 1536 1535 1535 1534 1534 1534 1535 1534 1535 1536 1537 1537 1538 1539 1538 1538 1539 1540 1541 1542 1542 1542 1543 1544 1545 1546 1546 1547 1548 1548 1549 1550 1551 1552 1554 1555 1557 1559 1562 1564 1565 1566 1567 1568 1569
1531 1530 1530 1530 1530 1529 1529 1529 1528 1529 1530 1532 1534 1534 1534 1534 1535 1536 1537 1537 1537 1537 1537 1537 1537 1537 1538 1538 1538 1539 1539 1539 1539 1539 1540 1540 1541 1541 1542 1542 1543 1543 1544 1544 1545 1545 1545 1546 1547 1548 1548 1548 1550 1552 1554 1556 1559 1561 1563 1564 1565 1565 1566
1531 1531 1531 1532 1532 1532 1532 1531 1531 1530 1532 1534 1536 1537 1537 1536 1537 1538 1539 1539 1539 1539 1539 1539 1539 1539 1540 1540 1539 1539 1540 1541 1541 1541 1540 1540 1541 1541 1542 1542 1542 1543 1543 1544 1544 1544 1544 1545 1546 1547 1548 1547 1547 1548 1552 1554 1556 1558 1560 1562 1562 1562 1564
1532 1532 1532 1532 1533 1533 1533 1533 1533 1532 1533 1534 1536 1537 1537 1537 1537 1539 1540 1541 1540 1541 1542 1541 1541 1541 1541 1541 1541 1540 1541 1544 1544 1542 1541 1541 1541 1542 1542 1542 1543 1543 1543 1544 1544 1545 1545 1546 1546 1547 1548 1548 1546 1547 1550 1552 1554 1556 1558 1559 1560 1561 1562
1533 1533 1533 1533 1534 1534 1534 1534 1534 1534 1535 1535 1536 1537 1537 1537 1537 1539 1541 1542 1541 1542 1543 1543 1543 1543 1543 1543 1542 1541 1543 1545 1545 1543 1543 1542 1542 1543 1543 1544 1544 1544 1545 1545 1545 1546 1546 1546 1547 1547 1548 1548 1548 1548 1549 1550 1552 1554 1556 1558 1559 1560 1561
1534 1535 1535 1535 1536 1536 1536 1536 1536 1536 1536 1536 1537 1538 1538 1538 1539 1539 1540 1542 1542 1542 1543 1545 1545 1545 1544 1544 1543 1543 1543 1544 1544 1543 1544 1545 1545 1545 1546 1546 1545 1545 1546 1546 1546 1547 1548 1548 1548 1548 1548 1549 1549 1550 1550 1551 1553 1555 1556 1557 1558 1559 1559
1535 1535 1536 1536 1537 1537 1537 1537 1538 1538 1537 1536 1537 1538 1539 1539 1539 1539 1540 1542 1543 1543 1544 1545 1546 1546 1545 1545 1544 1544 1544 1543 1543 1543 1544 1545 1546 1546 1546 1547 1546 1547 1547 1547 1548 1548 1549 1550 1550 1550 1550 1550 1550 1551 1552 1552 1554 1555 1555 1556 1557 1558 1558
1536 1536 1537 1537 1537 1538 1538 1538 1538 1538 1537 1537 1538 1539 1539 1539 1539 1540 1541 1542 1543 1544 1545 1546 1547 1547 1546 1545 1545 1545 1545 1544 1544 1544 1544 1544 1544 1545 1545 1546 1546 1547 1547 1547 1548 1548 1549 1550 1551 1551 1552 1552 1552 1552 1553 1553 1554 1555 1555 1556 1557 1557 1558
1537 1537 1537 1538 1538 1538 1538 1538 1538 1538 1538 1538 1538 1539 1539 1539 1539 1541 1542 1542 1542 1544 1546 1547 1548 1547 1546 1545 1546 1546 1547 1546 1546 1545 1545 1544 1544 1545 1546 1546 1546 1546 1547 1548 1548 1548 1548 1549 1550 1551 1551 1552 1552 1552 1553 1554 1554 1555 1555 1556 1556 1557 1557
1538 1538 1538 1538 1539 1539 1539 1539 1539 1538 1538 1538 1538 1538 1539 1539 1539 1540 1541 1542 1542 1543 1545 1547 1549 1549 1548 1547 1546 1547 1548 1548 1548 1546 1545 1545 1545 1546 1547 1547 1546 1546 1547 1548 1548 1548 1548 1548 1549 1550 1550 1551 1551 1552 1552 1553 1554 1554 1554 1555 1555 1555 1556
1539 1539 1539 1539 1540 1539 1539 1539 1539 1539 1539 1539 1539 1539 1539 1539 1539 1540 1541 1541 1542 1542 1543 1545 1548 1550 1549 1546 1545 1546 1547 1548 1548 1547 1546 1546 1546 1546 1546 1547 1546 1546 1547 1547 1548 1548 1548 1548 1549 1550 1550 1551 1552 1552 1552 1553 1553 1553 1553 1553 1553 1554 1554
1540 1540 1540 1541 1541 1540 1540 1539 1539 1539 1539 1539 1539 1539 1540 1540 1540 1540 1540 1541 1541 1541 1541 1542 1546 1549 1548 1546 1545 1545 1545 1546 1547 1547 1546 1546 1546 1547 1546 1546 1546 1546 1546 1547 1547 1547 1548 1548 1549 1549 1549 1550 1551 1552 1552 1552 1552 1552 1552 1552 1552 1552 1552
1540 1540 1541 1541 1540 1540 1540 1540 1540 1540 1540 1539 1539 1539 1539 1540 1540 1540 1540 1540 1540 1540 1541 1542 1544 1547 1547 1546 1546 1545 1545 1545 1546 1546 1546 1546 1546 1547 1547 1547 1547 1547 1546 1547 1547 1547 1548 1548 1548 1549 1549 1549 1550 1550 1551 1551 1550 1550 1550 1550 1550 1551 1550